This demonstration page uses our WeatherBlox Daily Observations layout. Learn more.

38.89511, -77.03637

Hourly Observations for November 24, 2017

Temp ( °F °C ) Dew Point ( °F °C ) Humidity (%) Winds ( mph kmh ) Pressure ( in mb ) Visibility ( mi km ) Precip ( " mm )
12:52 am 00:52 Clear 36 2.2 28 -2.2 73 73 SW 3 6 30.06 1018 10 16.09344 0 0
1:52 am 01:52 Clear 35 1.7 28 -2.2 76 76 SW 5 7 30.06 1018 10 16.09344 0 0
2:52 am 02:52 Clear 34 1.1 29 -1.7 82 82 SW 5 7 30.06 1018 10 16.09344 0 0
3:52 am 03:52 Clear 33 0.6 29 -1.7 85 85 SW 3 6 30.06 1018 10 16.09344 0 0
4:52 am 04:52 Clear 34 1.1 29 -1.7 82 82 WSW 5 7 30.06 1018 10 16.09344 0 0
5:52 am 05:52 Clear 32 0 29 -1.7 88 88 SSW 6 9 30.06 1018 10 16.09344 0 0
6:52 am 06:52 Mostly Clear 33 0.6 29 -1.7 85 85 SW 5 7 30.06 1018 10 16.09344 0 0
7:52 am 07:52 Sunny 35 1.7 32 0 89 89 Calm 30.09 1019 10 16.09344 0 0
8:52 am 08:52 Sunny 38 3.3 33 0.6 83 83 Calm 30.09 1019 10 16.09344 0 0
9:52 am 09:52 Sunny 41 5 34 1.1 76 76 S 5 7 30.09 1019 10 16.09344 0 0
10:52 am 10:52 Sunny 46 7.8 33 0.6 61 61 S 9 15 30.06 1018 10 16.09344 0 0
11:52 am 11:52 Sunny 49 9.4 33 0.6 55 55 S 10 17 30.03 1017 10 16.09344 0 0
12:52 pm 12:52 Mostly Sunny 50 10 32 0 50 50 SSE 9 15 30 1016 10 16.09344 0 0
1:52 pm 13:52 Mostly Sunny 52 11.1 33 0.6 49 49 SSE 8 13 29.97 1015 10 16.09344 0 0
2:52 pm 14:52 Mostly Sunny 53 11.7 33 0.6 47 47 S 9 15 29.97 1015 10 16.09344 0 0
3:52 pm 15:52 Sunny 52 11.1 30 -1.1 43 43 S 8 13 29.97 1015 10 16.09344 0 0
4:52 pm 16:52 Clear 49 9.4 30 -1.1 48 48 S 9 15 29.94 1014 10 16.09344 0 0
5:52 pm 17:52 Clear 47 8.3 35 1.7 63 63 S 6 9 29.94 1014 10 16.09344 0 0
6:52 pm 18:52 Clear 47 8.3 32 0 56 56 S 6 9 29.97 1015 10 16.09344 0 0
7:52 pm 19:52 Clear 46 7.8 31 -0.6 56 56 S 12 19 29.97 1015 10 16.09344 0 0
8:52 pm 20:52 Clear 43 6.1 33 0.6 68 68 S 8 13 29.97 1015 10 16.09344 0 0
9:52 pm 21:52 Clear 43 6.1 32 0 65 65 SSW 5 7 29.94 1014 10 16.09344 0 0
10:52 pm 22:52 Clear 41 5 33 0.6 73 73 S 8 13 29.94 1014 10 16.09344 0 0
11:52 pm 23:52 Clear 41 5 34 1.1 76 76 SSW 3 6 29.94 1014 10 16.09344 0 0

Powered by AerisWeather